• In Czech Republic
  • List of Countries
  • For 7 days
  • Water Temperature
  • Satellite Maps
  • Weather Map
  • Weather Widgets
  • user-avatar
    Login

    Hourly Weather Jaunde

    Today, 17 February, Saturday

    Time Temperature Precipitation Wind Pressure Humidity
    00:00 +24°C° 0 mm 1 mps 697 mmHg 90%
    01:00 +23°C° 0 mm 1 mps 697 mmHg 92%
    02:00 +23°C° 0 mm 1 mps 697 mmHg 92%
    03:00 +23°C° 0 mm 1 mps 697 mmHg 92%
    04:00 +23°C° 0 mm 1 mps 697 mmHg 91%
    05:00 +23°C° 0 mm 1 mps 697 mmHg 91%
    06:00 +23°C° 0 mm 1 mps 697 mmHg 90%
    07:00 +23°C° 0 mm 1 mps 697 mmHg 90%
    08:00 +25°C° 0 mm 1 mps 698 mmHg 83%
    09:00 +26°C° 0 mm 1 mps 698 mmHg 76%
    10:00 +28°C° 0 mm 1 mps 698 mmHg 69%
    11:00 +30°C° 0 mm 1 mps 698 mmHg 59%
    12:00 +32°C° 0 mm 1 mps 698 mmHg 49%
    13:00 +34°C° 0 mm 1 mps 697 mmHg 41%
    14:00 +34°C° 0.2 mm 1 mps 697 mmHg 42%
    15:00 +33°C° 0.2 mm 1 mps 696 mmHg 43%
    16:00 +33°C° 0.2 mm 1 mps 695 mmHg 43%
    17:00 +31°C° 0.3 mm 1 mps 696 mmHg 52%
    18:00 +29°C° 0.3 mm 1 mps 696 mmHg 60%
    19:00 +27°C° 0.3 mm 2 mps 696 mmHg 68%
    20:00 +26°C° 0.1 mm 2 mps 696 mmHg 74%
    21:00 +25°C° 0.1 mm 2 mps 696 mmHg 79%
    22:00 +24°C° 0.1 mm 2 mps 697 mmHg 85%
    23:00 +24°C° 0 mm 2 mps 697 mmHg 87%

    Tomorrow, 18 February, Sunday

    Time Temperature Precipitation Wind Pressure Humidity
    00:00 +23°C° 0 mm 2 mps 697 mmHg 88%
    01:00 +23°C° 0 mm 2 mps 697 mmHg 90%
    02:00 +23°C° 0 mm 1 mps 697 mmHg 91%
    03:00 +23°C° 0 mm 1 mps 696 mmHg 91%
    04:00 +23°C° 0 mm 1 mps 696 mmHg 92%
    05:00 +22°C° 0 mm 1 mps 697 mmHg 92%
    06:00 +22°C° 0 mm 1 mps 697 mmHg 93%
    07:00 +22°C° 0 mm 1 mps 697 mmHg 93%
    08:00 +24°C° 0.1 mm 1 mps 698 mmHg 83%
    09:00 +26°C° 0.1 mm 1 mps 698 mmHg 74%
    10:00 +28°C° 0.1 mm 2 mps 699 mmHg 64%
    11:00 +30°C° 0.5 mm 2 mps 698 mmHg 57%
    12:00 +31°C° 0.5 mm 2 mps 697 mmHg 51%
    13:00 +34°C° 0.5 mm 2 mps 697 mmHg 44%
    14:00 +34°C° 0.1 mm 2 mps 696 mmHg 44%
    15:00 +32°C° 0.1 mm 1 mps 696 mmHg 45%
    16:00 +32°C° 0.1 mm 1 mps 695 mmHg 45%
    17:00 +30°C° 0.1 mm 1 mps 695 mmHg 54%
    18:00 +28°C° 0.1 mm 1 mps 695 mmHg 62%
    19:00 +26°C° 0.1 mm 1 mps 695 mmHg 70%
    20:00 +25°C° 0 mm 1 mps 696 mmHg 75%
    21:00 +25°C° 0 mm 1 mps 696 mmHg 79%
    22:00 +24°C° 0 mm 2 mps 697 mmHg 84%
    23:00 +24°C° 0 mm 1 mps 696 mmHg 86%

    Day after tomorrow, 19 February, Monday

    Time Temperature Precipitation Wind Pressure Humidity
    00:00 +23°C° 0 mm 1 mps 696 mmHg 88%
    01:00 +23°C° 0 mm 1 mps 696 mmHg 90%
    02:00 +23°C° 0 mm 1 mps 696 mmHg 90%
    03:00 +23°C° 0 mm 1 mps 696 mmHg 90%
    04:00 +23°C° 0 mm 1 mps 696 mmHg 91%
    05:00 +23°C° 0.2 mm 1 mps 696 mmHg 91%
    06:00 +23°C° 0.2 mm 1 mps 697 mmHg 92%
    07:00 +20°C° 0.2 mm 0 mps 697 mmHg 93%
    08:00 +24°C° 0.1 mm 1 mps 698 mmHg 84%
    09:00 +26°C° 0.1 mm 1 mps 698 mmHg 74%
    10:00 +28°C° 0.1 mm 1 mps 699 mmHg 64%
    11:00 +30°C° 0.2 mm 1 mps 698 mmHg 58%
    12:00 +31°C° 0.2 mm 1 mps 698 mmHg 52%
    13:00 +33°C° 0.2 mm 1 mps 697 mmHg 46%
    14:00 +32°C° 0.3 mm 1 mps 696 mmHg 48%
    15:00 +31°C° 0.3 mm 1 mps 695 mmHg 49%
    16:00 +31°C° 0.3 mm 1 mps 695 mmHg 51%
    17:00 +29°C° 0.1 mm 1 mps 695 mmHg 58%
    18:00 +27°C° 0.1 mm 1 mps 695 mmHg 65%
    19:00 +26°C° 0.1 mm 1 mps 696 mmHg 72%
    20:00 +25°C° 0 mm 1 mps 696 mmHg 75%
    21:00 +25°C° 0 mm 1 mps 697 mmHg 79%
    22:00 +24°C° 0 mm 1 mps 697 mmHg 82%
    23:00 +24°C° 0 mm 1 mps 697 mmHg 85%

    20 February, Tuesday

    Time Temperature Precipitation Wind Pressure Humidity
    00:00 +23°C° 0 mm 1 mps 696 mmHg 89%
    01:00 +23°C° 0 mm 1 mps 696 mmHg 92%
    02:00 +22°C° 0 mm 1 mps 696 mmHg 93%
    03:00 +20°C° 0 mm 0 mps 695 mmHg 95%
    04:00 +20°C° 0 mm 0 mps 695 mmHg 97%
    05:00 +20°C° 0 mm 0 mps 695 mmHg 96%
    06:00 +20°C° 0 mm 0 mps 696 mmHg 95%
    07:00 +20°C° 0 mm 0 mps 696 mmHg 94%
    08:00 +25°C° 0 mm 1 mps 697 mmHg 81%
    09:00 +27°C° 0 mm 1 mps 697 mmHg 69%
    10:00 +30°C° 0 mm 1 mps 698 mmHg 56%
    11:00 +31°C° 0 mm 1 mps 697 mmHg 51%
    12:00 +33°C° 0 mm 1 mps 697 mmHg 45%
    13:00 +35°C° 0 mm 1 mps 696 mmHg 40%
    14:00 +34°C° 0.1 mm 1 mps 695 mmHg 44%
    15:00 +32°C° 0.1 mm 1 mps 695 mmHg 47%
    16:00 +31°C° 0.1 mm 1 mps 694 mmHg 51%
    17:00 +29°C° 0.1 mm 1 mps 694 mmHg 58%
    18:00 +28°C° 0.1 mm 1 mps 694 mmHg 65%
    19:00 +26°C° 0.1 mm 1 mps 695 mmHg 72%
    20:00 +26°C° 0 mm 1 mps 695 mmHg 75%
    21:00 +25°C° 0 mm 1 mps 696 mmHg 79%
    22:00 +24°C° 0 mm 1 mps 696 mmHg 83%
    23:00 +24°C° 0 mm 1 mps 696 mmHg 85%

    21 February, Wednesday

    Time Temperature Precipitation Wind Pressure Humidity
    00:00 +23°C° 0 mm 1 mps 695 mmHg 87%
    01:00 +23°C° 0 mm 1 mps 695 mmHg 89%
    02:00 +23°C° 0 mm 1 mps 695 mmHg 91%
    03:00 +23°C° 0 mm 1 mps 695 mmHg 92%
    04:00 +22°C° 0 mm 1 mps 694 mmHg 94%
    05:00 +22°C° 0 mm 1 mps 695 mmHg 94%
    06:00 +23°C° 0 mm 1 mps 695 mmHg 93%
    07:00 +23°C° 0 mm 1 mps 696 mmHg 93%
    08:00 +25°C° 0 mm 1 mps 696 mmHg 83%
    09:00 +27°C° 0 mm 1 mps 697 mmHg 72%
    10:00 +29°C° 0 mm 1 mps 697 mmHg 62%
    11:00 +30°C° 0.2 mm 2 mps 697 mmHg 57%
    12:00 +31°C° 0.2 mm 2 mps 696 mmHg 53%
    13:00 +34°C° 0.2 mm 2 mps 695 mmHg 49%
    14:00 +32°C° 0.6 mm 2 mps 695 mmHg 53%
    15:00 +31°C° 0.6 mm 2 mps 694 mmHg 57%
    16:00 +30°C° 0.6 mm 2 mps 694 mmHg 61%
    17:00 +28°C° 0.4 mm 2 mps 694 mmHg 68%
    18:00 +27°C° 0.4 mm 1 mps 694 mmHg 75%
    19:00 +25°C° 0.4 mm 1 mps 695 mmHg 83%
    20:00 +24°C° 0 mm 1 mps 695 mmHg 85%
    21:00 +24°C° 0 mm 1 mps 695 mmHg 88%
    22:00 +24°C° 0 mm 2 mps 696 mmHg 90%
    23:00 +23°C° 0 mm 2 mps 696 mmHg 91%

    22 February, Thursday

    Time Temperature Precipitation Wind Pressure Humidity
    00:00 +23°C° 0 mm 2 mps 695 mmHg 91%
    01:00 +23°C° 0 mm 2 mps 695 mmHg 92%
    02:00 +22°C° 0 mm 1 mps 695 mmHg 92%
    03:00 +22°C° 0 mm 1 mps 694 mmHg 93%
    04:00 +22°C° 0 mm 1 mps 694 mmHg 94%
    05:00 +22°C° 0 mm 1 mps 695 mmHg 94%
    06:00 +23°C° 0 mm 1 mps 695 mmHg 93%
    07:00 +23°C° 0 mm 1 mps 696 mmHg 93%
    08:00 +24°C° 0 mm 1 mps 696 mmHg 85%
    09:00 +26°C° 0 mm 1 mps 697 mmHg 76%
    10:00 +28°C° 0 mm 1 mps 697 mmHg 68%
    11:00 +29°C° 0.1 mm 1 mps 697 mmHg 63%
    12:00 +31°C° 0.1 mm 1 mps 696 mmHg 57%
    13:00 +32°C° 0.1 mm 1 mps 695 mmHg 52%
    14:00 +31°C° 0.7 mm 1 mps 695 mmHg 55%
    15:00 +31°C° 0.7 mm 1 mps 694 mmHg 59%
    16:00 +30°C° 0.7 mm 1 mps 694 mmHg 62%
    17:00 +28°C° 0.1 mm 1 mps 694 mmHg 68%
    18:00 +27°C° 0.1 mm 1 mps 694 mmHg 75%
    19:00 +25°C° 0.1 mm 1 mps 694 mmHg 81%
    20:00 +25°C° 0.1 mm 1 mps 695 mmHg 84%
    21:00 +24°C° 0.1 mm 1 mps 695 mmHg 87%
    22:00 +23°C° 0.1 mm 1 mps 695 mmHg 91%
    23:00 +23°C° 0 mm 1 mps 695 mmHg 92%
    Show more